| time (UTC) | temp F | wind direction | speed MPH | gust MPH | rain 1hr in | rain 24hr in | rain mn in | humidity % | barometer mb |
| 20260507011755 | 75 | 95 | 1.0 | 3.0 | 0.00 | 0.00 | 0.00 | 86 | 1017.6 |
| 20260507011248 | 75 | 96 | 1.0 | 5.0 | 0.00 | 0.00 | 0.00 | 86 | 1017.6 |
| 20260507010737 | 75 | 78 | 2.0 | 5.0 | 0.00 | 0.00 | 0.00 | 87 | 1017.6 |
| 20260507010231 | 75 | 76 | 2.0 | 3.0 | 0.00 | 0.00 | 0.00 | 87 | 1017.6 |
| 20260507005726 | 75 | 70 | 2.0 | 3.0 | 0.00 | 0.00 | 0.00 | 87 | 1017.7 |
| 20260507005221 | 75 | 71 | 1.0 | 3.0 | 0.00 | 0.00 | 0.00 | 87 | 1017.7 |
| 20260507004714 | 75 | 81 | 1.0 | 3.0 | 0.00 | 0.00 | 0.00 | 87 | 1017.7 |
| 20260507004208 | 75 | 89 | 1.0 | 3.0 | 0.00 | 0.00 | 0.00 | 87 | 1017.7 |
| 20260507003923 | 75 | 85 | 1.0 | 2.0 | 0.00 | 0.00 | 0.00 | 87 | 1017.7 |
| 20260507003158 | 75 | 85 | 1.0 | 2.0 | 0.00 | 0.00 | 0.00 | 87 | 1017.8 |
| 20260507002910 | 75 | 85 | 0.0 | 2.0 | 0.00 | 0.00 | 0.00 | 86 | 1017.8 |
| 20260507002143 | 76 | 85 | 0.0 | 3.0 | 0.00 | 0.00 | 0.00 | 86 | 1017.8 |
| 20260507001639 | 76 | 85 | 1.0 | 3.0 | 0.00 | 0.00 | 0.00 | 86 | 1017.8 |
| 20260507001149 | 76 | 86 | 1.0 | 3.0 | 0.00 | 0.00 | 0.00 | 85 | 1017.9 |
| 20260507000635 | 76 | 90 | 0.0 | 2.0 | 0.00 | 0.00 | 0.00 | 85 | 1018.0 |
| 20260507000133 | 77 | 91 | 1.0 | 2.0 | 0.00 | 0.00 | 0.00 | 85 | 1017.9 |
| 20260506235633 | 77 | 91 | 1.0 | 2.0 | 0.00 | 0.00 | 0.00 | 84 | 1017.8 |
| 20260506235134 | 77 | 91 | 1.0 | 2.0 | 0.00 | 0.00 | 0.00 | 84 | 1017.8 |
| 20260506234633 | 77 | 91 | 1.0 | 2.0 | 0.00 | 0.00 | 0.00 | 84 | 1017.8 |
| 20260506234350 | 78 | 91 | 1.0 | 3.0 | 0.00 | 0.00 | 0.00 | 83 | 1017.8 |
| 20260506233628 | 78 | 91 | 2.0 | 3.0 | 0.00 | 0.00 | 0.00 | 83 | 1017.8 |
| 20260506233129 | 78 | 85 | 1.0 | 3.0 | 0.00 | 0.00 | 0.00 | 82 | 1017.8 |
| 20260506232642 | 78 | 75 | 1.0 | 2.0 | 0.00 | 0.00 | 0.00 | 83 | 1017.9 |
| 20260506232129 | 78 | 75 | 1.0 | 3.0 | 0.00 | 0.00 | 0.00 | 83 | 1018.0 |
| 20260506231851 | 78 | 75 | 1.0 | 3.0 | 0.00 | 0.00 | 0.00 | 83 | 1017.9 |
| 20260506231129 | 78 | 84 | 1.0 | 3.0 | 0.00 | 0.00 | 0.00 | 83 | 1017.8 |
| 20260506230851 | 78 | 86 | 2.0 | 3.0 | 0.00 | 0.00 | 0.00 | 83 | 1017.8 |
| 20260506230127 | 78 | 89 | 1.0 | 3.0 | 0.00 | 0.00 | 0.00 | 83 | 1017.8 |
| 20260506225621 | 79 | 89 | 1.0 | 2.0 | 0.00 | 0.00 | 0.00 | 82 | 1017.7 |
| 20260506225114 | 79 | 89 | 1.0 | 2.0 | 0.00 | 0.00 | 0.00 | 82 | 1017.7 |
| 20260506224619 | 79 | 89 | 1.0 | 3.0 | 0.00 | 0.00 | 0.00 | 82 | 1017.7 |
| 20260506224114 | 80 | 89 | 1.0 | 3.0 | 0.00 | 0.00 | 0.00 | 82 | 1017.7 |
| 20260506223611 | 80 | 83 | 1.0 | 3.0 | 0.00 | 0.00 | 0.00 | 82 | 1017.7 |
| 20260506223112 | 80 | 92 | 1.0 | 2.0 | 0.00 | 0.00 | 0.00 | 82 | 1017.7 |
| 20260506222608 | 80 | 92 | 0.0 | 2.0 | 0.00 | 0.00 | 0.00 | 81 | 1017.7 |
| 20260506222107 | 81 | 92 | 0.0 | 0.0 | 0.00 | 0.00 | 0.00 | 80 | 1017.8 |
| 20260506221607 | 81 | 129 | 0.0 | 0.0 | 0.00 | 0.00 | 0.00 | 79 | 1017.7 |
| 20260506221107 | 81 | 129 | 0.0 | 1.0 | 0.00 | 0.00 | 0.00 | 78 | 1017.7 |
| 20260506220619 | 81 | 129 | 0.0 | 1.0 | 0.00 | 0.00 | 0.00 | 79 | 1017.7 |
| 20260506220327 | 81 | 129 | 0.0 | 1.0 | 0.00 | 0.00 | 0.00 | 79 | 1017.7 |
| 20260506215607 | 81 | 134 | 0.0 | 0.0 | 0.00 | 0.00 | 0.00 | 79 | 1017.8 |
| 20260506215102 | 82 | 134 | 0.0 | 0.0 | 0.00 | 0.00 | 0.00 | 79 | 1017.8 |
| 20260506214607 | 82 | 134 | 0.0 | 1.0 | 0.00 | 0.00 | 0.00 | 78 | 1017.7 |
| 20260506214102 | 82 | 134 | 0.0 | 1.0 | 0.00 | 0.00 | 0.00 | 78 | 1017.6 |
| 20260506213602 | 83 | 142 | 0.0 | 1.0 | 0.00 | 0.00 | 0.00 | 77 | 1017.5 |
| 20260506213102 | 83 | 143 | 0.0 | 1.0 | 0.00 | 0.00 | 0.00 | 76 | 1017.6 |
| 20260506212602 | 83 | 143 | 0.0 | 2.0 | 0.00 | 0.00 | 0.00 | 75 | 1017.5 |
| 20260506212104 | 84 | 143 | 0.0 | 2.0 | 0.00 | 0.00 | 0.00 | 74 | 1017.6 |
| 20260506211602 | 84 | 143 | 0.0 | 2.0 | 0.00 | 0.00 | 0.00 | 74 | 1017.5 |
| 20260506211103 | 85 | 143 | 0.0 | 1.0 | 0.00 | 0.00 | 0.00 | 73 | 1017.5 |
| 20260506210819 | 85 | 143 | 0.0 | 2.0 | 0.00 | 0.00 | 0.00 | 72 | 1017.6 |
| 20260506210109 | 85 | 143 | 0.0 | 2.0 | 0.00 | 0.00 | 0.00 | 71 | 1017.6 |
| 20260506205559 | 86 | 127 | 0.0 | 0.0 | 0.00 | 0.00 | 0.00 | 70 | 1017.7 |
| 20260506205059 | 86 | 127 | 0.0 | 0.0 | 0.00 | 0.00 | 0.00 | 69 | 1017.6 |
| 20260506204558 | 87 | 124 | 0.0 | 0.0 | 0.00 | 0.00 | 0.00 | 68 | 1017.4 |
| 20260506204332 | 87 | 124 | 0.0 | 0.0 | 0.00 | 0.00 | 0.00 | 66 | 1017.6 |
| 20260506203557 | 88 | 97 | 0.0 | 0.0 | 0.00 | 0.00 | 0.00 | 65 | 1017.5 |
| 20260506203326 | 88 | 96 | 0.0 | 0.0 | 0.00 | 0.00 | 0.00 | 64 | 1017.5 |
| 20260506202605 | 89 | 96 | 0.0 | 0.0 | 0.00 | 0.00 | 0.00 | 63 | 1017.6 |
| 20260506202050 | 89 | 96 | 0.0 | 0.0 | 0.00 | 0.00 | 0.00 | 63 | 1017.5 |
| 20260506201548 | 89 | 96 | 0.0 | 0.0 | 0.00 | 0.00 | 0.00 | 62 | 1017.6 |
| 20260506201325 | 90 | 96 | 0.0 | 0.0 | 0.00 | 0.00 | 0.00 | 62 | 1017.6 |
| 20260506200552 | 90 | 96 | 0.0 | 2.0 | 0.00 | 0.00 | 0.00 | 61 | 1017.7 |
| 20260506200040 | 90 | 96 | 1.0 | 3.0 | 0.00 | 0.00 | 0.00 | 60 | 1017.7 |
| 20260506195534 | 91 | 94 | 1.0 | 3.0 | 0.00 | 0.00 | 0.00 | 60 | 1017.7 |
| 20260506195029 | 91 | 92 | 1.0 | 3.0 | 0.00 | 0.00 | 0.00 | 58 | 1017.7 |
| 20260506194753 | 91 | 63 | 0.0 | 3.0 | 0.00 | 0.00 | 0.00 | 58 | 1017.7 |
| 20260506194014 | 91 | 89 | 1.0 | 3.0 | 0.00 | 0.00 | 0.00 | 58 | 1017.8 |
| 20260506193727 | 91 | 89 | 2.0 | 5.0 | 0.00 | 0.00 | 0.00 | 58 | 1017.6 |
| 20260506193003 | 91 | 77 | 2.0 | 5.0 | 0.00 | 0.00 | 0.00 | 57 | 1017.8 |
| 20260506192456 | 92 | 326 | 2.0 | 5.0 | 0.00 | 0.00 | 0.00 | 56 | 1017.9 |
| 20260506191951 | 92 | 350 | 2.0 | 5.0 | 0.00 | 0.00 | 0.00 | 56 | 1017.9 |
| 20260506191705 | 92 | 51 | 1.0 | 5.0 | 0.00 | 0.00 | 0.00 | 56 | 1017.9 |
| 20260506190938 | 92 | 120 | 2.0 | 6.0 | 0.00 | 0.00 | 0.00 | 56 | 1017.9 |
| 20260506190502 | 92 | 323 | 1.0 | 6.0 | 0.00 | 0.00 | 0.00 | 55 | 1017.9 |
| 20260506190150 | 92 | 355 | 2.0 | 6.0 | 0.00 | 0.00 | 0.00 | 56 | 1017.8 |
| 20260506185426 | 92 | 285 | 3.0 | 8.0 | 0.00 | 0.00 | 0.00 | 56 | 1017.8 |
| 20260506184914 | 92 | 319 | 2.0 | 8.0 | 0.00 | 0.00 | 0.00 | 56 | 1017.7 |
| 20260506184414 | 92 | 327 | 2.0 | 6.0 | 0.00 | 0.00 | 0.00 | 56 | 1017.7 |
| 20260506183902 | 92 | 293 | 3.0 | 8.0 | 0.00 | 0.00 | 0.00 | 56 | 1017.8 |
| 20260506183357 | 92 | 340 | 4.0 | 8.0 | 0.00 | 0.00 | 0.00 | 56 | 1017.8 |
| 20260506182850 | 92 | 214 | 3.0 | 7.0 | 0.00 | 0.00 | 0.00 | 56 | 1017.9 |
| 20260506182344 | 92 | 333 | 2.0 | 7.0 | 0.00 | 0.00 | 0.00 | 55 | 1017.9 |
| 20260506181838 | 92 | 311 | 4.0 | 12.0 | 0.00 | 0.00 | 0.00 | 56 | 1018.0 |
| 20260506181345 | 91 | 300 | 5.0 | 12.0 | 0.00 | 0.00 | 0.00 | 57 | 1018.1 |
| 20260506180827 | 91 | 322 | 7.0 | 16.0 | 0.00 | 0.00 | 0.00 | 56 | 1018.1 |
| 20260506180321 | 91 | 338 | 6.0 | 16.0 | 0.00 | 0.00 | 0.00 | 56 | 1018.1 |
| 20260506175815 | 92 | 65 | 3.0 | 9.0 | 0.00 | 0.00 | 0.00 | 56 | 1018.3 |
| 20260506175310 | 92 | 326 | 4.0 | 10.0 | 0.00 | 0.00 | 0.00 | 56 | 1018.3 |
| 20260506174808 | 92 | 292 | 5.0 | 12.0 | 0.00 | 0.00 | 0.00 | 57 | 1018.3 |
| 20260506174256 | 91 | 349 | 5.0 | 12.0 | 0.00 | 0.00 | 0.00 | 57 | 1018.4 |
| 20260506173753 | 91 | 262 | 6.0 | 14.0 | 0.00 | 0.00 | 0.00 | 56 | 1018.5 |
| 20260506173507 | 91 | 333 | 7.0 | 14.0 | 0.00 | 0.00 | 0.00 | 57 | 1018.5 |
| 20260506172738 | 91 | 175 | 6.0 | 10.0 | 0.00 | 0.00 | 0.00 | 57 | 1018.6 |
| 20260506172233 | 91 | 62 | 5.0 | 10.0 | 0.00 | 0.00 | 0.00 | 57 | 1018.6 |
| 20260506171731 | 91 | 342 | 5.0 | 9.0 | 0.00 | 0.00 | 0.00 | 58 | 1018.7 |
| 20260506171221 | 91 | 312 | 5.0 | 10.0 | 0.00 | 0.00 | 0.00 | 58 | 1018.8 |
| 20260506170715 | 91 | 300 | 5.0 | 10.0 | 0.00 | 0.00 | 0.00 | 59 | 1018.8 |
| 20260506170208 | 91 | 338 | 4.0 | 10.0 | 0.00 | 0.00 | 0.00 | 58 | 1018.8 |
| 20260506165705 | 91 | 303 | 4.0 | 10.0 | 0.00 | 0.00 | 0.00 | 59 | 1019.0 |
| 20260506165202 | 91 | 305 | 3.0 | 10.0 | 0.00 | 0.00 | 0.00 | 58 | 1019.2 |
| 20260506164650 | 91 | 11 | 5.0 | 9.0 | 0.00 | 0.00 | 0.00 | 59 | 1019.1 |
| 20260506164147 | 90 | 334 | 5.0 | 10.0 | 0.00 | 0.00 | 0.00 | 60 | 1019.1 |
| 20260506163650 | 90 | 314 | 6.0 | 12.0 | 0.00 | 0.00 | 0.00 | 59 | 1019.2 |
| 20260506163142 | 90 | 223 | 6.0 | 12.0 | 0.00 | 0.00 | 0.00 | 61 | 1019.3 |
| 20260506162642 | 90 | 328 | 5.0 | 12.0 | 0.00 | 0.00 | 0.00 | 60 | 1019.4 |
| 20260506162155 | 90 | 335 | 5.0 | 13.0 | 0.00 | 0.00 | 0.00 | 60 | 1019.4 |
| 20260506161653 | 90 | 352 | 5.0 | 13.0 | 0.00 | 0.00 | 0.00 | 60 | 1019.5 |
| 20260506161420 | 90 | 283 | 4.0 | 12.0 | 0.00 | 0.00 | 0.00 | 60 | 1019.8 |
| 20260506160651 | 90 | 291 | 4.0 | 12.0 | 0.00 | 0.00 | 0.00 | 60 | 1019.9 |
| 20260506160150 | 90 | 330 | 3.0 | 7.0 | 0.00 | 0.00 | 0.00 | 62 | 1020.0 |